Location: Pasadena, ca
(34.1243°N, 118.1037°W)
Time: 17:26:00
(UTC-07:00)

Envisat - Pass Details

Date: 14 October 2017
Orbit: 764 x 766 km, 98.2° (Epoch: 23 October)

Event Time Altitude Azimuth Distance (km) Brightness Sun altitude
Exits shadow 20:40:26 24° 357° (N) 1,546 4.6 -30.0°
Drops below altitude 10° 20:42:25 10° 353° (N) 2,306 5.6 -30.4°
Sets 20:44:44 0° 351° (N) 3,236 6.5 -30.8°
